Theta_e
287 282 281 282 284 286 287 287 287 286 283 283 280 281 281 281 282 283 280 282 283 283 282 285 284 285 286 288 289 290 287 287 289 289 290 291 291 291 290 291 291 291 293 293 295 295 295 294 294 295 295 295 295 296 297 297 298 298 299 299 298 302 305 309 312 314 314 313 314 315 315 315 317 316 317 317 317 316 316 316 316 315 315 315 315 314
287 281 282 285 287 288 286 286 286 284 283 283 282 280 282 281 283 285 285 283 283 283 280 280 280 282 285 288 290 290 287 288 289 289 289 290 290 290 289 289 290 291 290 290 290 290 290 292 293 293 294 295 294 295 296 296 298 298 297 298 299 299 307 312 313 314 315 315 315 314 314 315 316 316 315 315 316 316 315 315 315 315 315 314 314 313
282 282 285 287 287 285 283 285 285 285 284 282 282 281 280 282 282 283 282 281 283 282 282 282 281 284 286 288 290 290 290 291 291 290 290 290 289 289 288 288 288 287 288 287 289 289 290 291 292 293 294 295 296 296 296 296 296 296 296 297 296 297 303 308 313 314 314 316 317 316 315 315 314 315 316 317 317 315 315 314 314 314 314 313 312 313
280 282 287 288 286 287 283 282 282 282 281 281 280 278 280 282 279 280 280 281 283 283 280 279 280 283 286 288 288 290 290 290 290 288 289 289 289 289 289 288 288 287 287 287 287 289 289 290 291 292 293 294 294 294 294 295 296 296 297 295 296 296 296 301 307 312 314 314 316 317 315 313 314 311 312 313 313 314 313 312 313 313 313 312 312 312
283 283 283 287 286 286 285 281 282 281 281 281 282 282 281 281 282 282 281 279 280 281 281 280 281 283 285 285 288 284 284 285 286 286 286 287 287 288 287 286 287 287 287 287 286 287 288 290 291 292 293 291 294 294 294 294 295 297 296 297 297 297 297 297 300 306 311 312 312 313 312 311 310 308 310 310 310 312 312 312 312 312 312 312 312 311
284 285 283 285 284 285 284 280 282 283 280 280 282 283 284 283 282 280 280 282 278 277 279 280 278 279 279 284 285 286 285 287 284 285 287 288 287 287 287 288 288 288 287 287 287 288 289 290 289 289 290 291 291 292 292 292 294 294 294 294 293 294 294 296 296 298 303 308 311 310 309 308 309 307 307 307 308 309 309 311 312 312 311 311 311 311
284 283 287 284 284 282 283 283 280 284 283 279 279 283 284 284 282 281 279 281 274 275 278 279 274 278 280 284 286 285 286 288 287 284 287 288 287 286 287 289 288 288 287 286 286 287 288 289 289 289 290 290 291 291 291 290 291 291 292 292 292 293 293 295 294 296 300 301 305 308 310 310 309 308 308 310 311 311 311 312 311 312 311 311 311 310
284 284 284 285 283 281 279 279 281 284 282 280 280 279 283 282 281 281 281 280 279 278 279 278 277 275 279 283 286 287 285 286 286 286 286 286 286 286 287 288 288 288 287 288 288 288 289 290 291 291 290 289 291 290 289 290 290 291 291 292 292 293 295 294 295 295 298 299 300 302 305 308 309 309 309 309 310 310 309 310 310 310 310 310 310 309
284 284 282 282 282 282 281 283 284 286 283 280 281 279 279 282 280 280 279 277 276 274 275 277 277 276 277 279 282 282 284 286 287 288 290 287 286 286 286 288 288 288 288 289 289 288 289 290 290 290 290 290 289 289 290 291 291 291 292 292 292 292 293 294 294 296 296 298 299 301 303 304 308 310 309 309 308 308 308 309 309 309 309 309 309 309
284 284 283 283 281 280 280 281 285 287 284 283 280 281 280 279 278 276 275 277 271 270 274 276 278 276 279 280 283 281 283 285 286 289 289 287 287 286 286 288 288 287 287 288 288 288 289 289 289 289 289 289 290 289 291 292 292 292 292 293 293 293 293 294 293 295 296 297 298 299 301 302 304 308 309 308 307 308 308 308 307 308 308 308 308 308
284 286 284 283 280 282 282 283 283 286 286 284 283 282 279 278 278 276 274 271 271 270 275 277 279 280 277 281 284 282 284 287 288 284 283 282 283 284 286 288 289 288 287 287 287 288 289 287 288 288 291 291 290 290 291 292 293 296 296 296 294 294 294 294 295 294 295 296 297 298 299 301 302 305 307 306 306 307 307 307 307 307 307 308 307 307
284 285 281 282 285 282 285 284 285 284 285 284 281 278 279 277 274 273 265 270 269 272 274 276 279 281 275 278 283 285 284 282 286 287 287 287 286 286 286 287 288 288 287 287 287 287 288 287 287 287 291 291 291 292 295 297 298 297 298 298 297 298 298 296 295 295 296 296 297 298 299 300 301 303 305 305 305 306 306 307 306 307 307 306 307 306
283 285 284 285 286 288 283 282 283 284 284 282 282 282 277 274 271 269 268 267 268 273 272 268 273 274 277 284 282 285 287 286 284 285 289 289 288 286 286 287 288 287 287 287 287 288 288 289 289 290 291 290 291 296 297 297 297 298 298 298 298 298 298 299 298 296 296 296 297 298 298 299 301 302 304 305 305 306 306 307 306 306 305 306 305 305
281 285 285 285 283 287 287 282 281 279 282 282 282 281 277 273 271 271 269 264 267 271 270 269 271 275 280 282 287 288 291 292 289 287 286 285 288 287 287 287 287 286 287 288 288 288 289 290 290 291 292 292 294 296 297 296 297 298 299 300 299 298 299 299 299 298 297 297 298 299 299 300 302 303 304 305 305 305 306 307 306 306 306 305 305 304
274 279 281 284 281 288 288 287 286 283 283 282 286 285 281 279 272 270 270 271 274 273 270 267 271 273 274 280 285 288 288 286 290 289 287 286 284 285 284 285 286 285 286 287 288 289 289 290 291 292 292 294 295 296 296 296 297 299 300 300 299 299 300 299 299 299 299 299 300 300 301 302 303 304 304 304 304 304 304 305 305 306 306 305 305 305
279 280 282 287 284 288 286 288 288 285 283 284 284 282 277 280 279 277 273 269 268 267 267 267 274 275 281 284 286 287 286 286 285 286 285 285 284 283 284 285 286 286 286 287 287 288 289 289 290 292 293 295 296 296 296 296 299 300 300 300 300 300 300 300 299 299 299 299 300 300 300 302 303 303 303 302 302 303 303 304 305 305 306 305 305 305
281 278 284 284 284 287 287 286 286 287 278 282 282 280 282 283 283 279 276 274 272 269 274 272 274 278 280 286 289 290 286 287 285 285 284 285 283 282 285 286 286 286 286 287 288 288 289 289 291 293 294 294 295 296 296 298 299 299 299 299 300 300 300 299 298 299 299 300 301 301 301 302 303 303 301 300 300 301 302 303 305 305 305 305 304 303
281 280 282 283 281 283 282 283 284 283 286 282 278 282 282 284 283 280 275 272 267 271 273 273 277 278 274 278 283 289 289 288 286 287 286 284 282 283 285 286 286 286 286 287 288 289 289 290 291 293 294 294 295 297 298 299 299 298 298 299 299 299 299 299 299 299 300 301 301 302 302 303 303 303 302 302 301 301 302 302 302 303 304 304 304 303
286 279 282 281 281 283 283 285 285 284 282 280 279 284 283 276 276 275 275 272 271 268 273 269 269 274 279 281 282 284 286 289 288 286 284 284 283 284 286 286 285 284 285 287 287 288 289 290 291 292 293 294 296 298 299 299 300 299 298 299 300 299 298 297 298 300 302 303 302 302 303 303 303 302 303 302 301 301 301 301 302 302 302 303 303 302
285 279 279 281 282 282 282 283 277 281 283 283 284 281 281 281 276 277 279 274 275 273 269 274 270 277 279 280 285 286 286 289 287 283 284 286 287 287 287 287 285 285 286 287 287 288 289 290 292 293 294 295 296 297 298 298 299 298 297 297 298 299 299 300 301 301 301 302 302 302 303 303 303 303 303 303 303 302 301 301 301 302 301 301 301 301
281 284 276 280 280 282 277 281 279 282 279 281 279 278 280 278 281 280 277 276 276 270 270 270 274 279 277 285 287 289 290 290 287 286 286 286 287 287 288 288 286 286 286 287 288 288 289 290 292 293 294 294 296 297 297 297 298 298 298 298 297 297 299 300 300 301 300 300 301 302 302 302 302 302 303 303 303 302 302 302 301 302 302 301 300 301
281 281 279 279 277 278 279 281 282 284 285 282 282 280 282 279 277 276 275 276 271 274 271 267 274 281 281 284 289 289 290 289 288 288 287 286 286 286 287 286 286 286 287 287 288 288 289 291 292 294 294 294 297 297 296 297 298 298 298 298 296 297 299 299 300 300 299 299 300 301 301 302 302 302 302 302 302 302 302 301 301 301 300 299 300 300
283 283 281 277 278 279 281 281 277 277 280 281 282 281 283 282 282 278 274 275 272 274 272 270 267 279 282 284 285 286 285 285 287 287 287 286 286 286 286 286 286 287 287 287 287 288 289 291 293 294 294 295 296 295 296 297 297 298 298 298 296 297 298 299 300 300 300 299 299 300 300 300 300 300 301 301 301 301 301 300 300 300 299 299 299 300
289 282 278 280 283 278 279 277 277 274 280 280 280 278 279 280 282 281 279 278 278 275 275 273 270 279 283 281 281 281 281 281 283 284 286 285 285 286 286 285 286 286 285 286 285 287 289 292 293 293 294 295 295 295 296 296 297 297 298 297 297 297 299 299 299 299 299 299 298 299 299 299 299 299 300 300 300 300 300 299 299 299 299 299 299 299
281 280 282 277 275 275 276 277 278 276 277 273 278 281 281 280 280 277 275 276 275 277 279 277 272 279 284 281 281 280 279 283 283 284 284 285 285 285 285 285 285 285 285 285 286 287 290 291 292 293 294 294 295 295 296 296 296 297 297 297 297 297 298 299 299 299 298 298 297 298 298 298 298 298 299 299 299 298 298 298 298 298 298 298 298 298
281 281 281 274 273 271 271 272 274 275 274 276 277 277 279 280 276 277 277 275 274 279 279 278 279 285 281 282 281 281 281 282 284 284 284 284 284 285 285 285 284 285 285 285 286 287 289 291 292 293 294 295 295 295 296 296 296 296 296 297 298 297 297 298 299 299 297 297 297 297 297 297 298 298 298 298 298 298 298 297 297 297 297 298 297 297
282 283 283 281 279 277 278 278 279 280 278 276 276 280 280 281 282 283 281 278 276 279 278 279 281 283 284 282 281 283 283 283 286 286 285 286 285 284 283 284 284 284 285 285 286 287 289 290 291 293 294 295 295 296 296 296 296 296 296 296 297 298 298 298 298 298 297 296 296 296 297 297 297 297 297 297 297 297 297 297 297 297 296 297 297 296
280 279 282 282 282 282 284 283 284 281 278 279 279 278 280 280 281 281 279 278 283 278 275 281 282 281 283 285 286 286 287 285 285 286 286 287 287 286 286 284 286 284 284 284 285 287 288 289 291 292 294 295 295 296 296 296 296 295 296 296 297 297 297 298 298 298 297 296 296 296 296 297 297 297 297 297 297 296 296 296 296 296 296 296 296 296
278 275 279 281 281 284 284 285 285 284 282 282 281 281 279 280 279 278 280 282 282 279 278 283 281 281 284 286 288 289 289 288 287 288 289 287 286 285 285 284 284 284 284 284 285 286 288 289 290 292 293 295 295 295 295 295 295 296 296 296 296 297 297 297 297 297 297 296 296 296 296 297 297 297 296 296 296 296 296 296 296 296 296 295 295 295
280 276 280 280 280 282 283 284 284 283 283 282 281 281 281 281 280 280 280 282 282 280 282 283 279 281 282 281 284 286 285 286 288 287 285 286 288 288 285 285 285 285 284 284 285 286 288 289 290 292 293 294 295 295 294 294 295 295 295 295 296 297 297 297 297 297 296 296 296 296 296 296 296 296 296 296 295 295 295 295 295 295 295 295 295 295
280 275 281 280 278 279 282 283 283 282 281 280 282 283 282 280 281 281 281 281 281 280 281 281 280 281 285 283 286 288 290 291 291 291 292 293 292 290 288 286 286 286 286 286 286 286 287 288 289 290 292 294 295 295 295 295 295 295 295 296 296 296 297 297 296 296 296 296 297 296 297 296 296 296 295 296 295 295 295 295 294 294 294 294 294 294
281 277 281 279 276 276 281 280 281 281 280 280 280 281 281 279 277 279 279 281 280 278 280 279 278 280 283 284 286 287 288 289 289 290 291 292 293 291 288 287 287 287 287 287 287 286 286 287 289 290 291 293 295 295 295 295 295 295 294 295 296 296 296 296 296 296 296 296 296 296 296 296 295 295 295 295 295 294 294 293 293 293 293 292 292 293
278 278 276 277 274 274 279 280 279 278 278 276 277 280 282 282 283 283 282 282 282 283 279 277 279 284 283 283 283 284 286 287 288 290 290 291 292 292 290 288 288 289 288 288 288 287 286 287 289 290 291 293 294 295 295 295 295 294 295 295 296 296 295 295 295 296 296 296 295 295 296 295 294 294 294 294 294 294 293 293 293 292 292 292 292 292
279 278 277 279 273 275 279 279 277 275 271 273 284 286 285 282 283 281 281 283 283 283 282 285 285 286 283 283 282 284 284 285 287 290 292 293 293 292 289 288 289 290 290 290 289 288 287 288 289 290 292 293 294 295 296 296 295 295 296 296 295 295 295 295 295 295 295 295 295 295 295 294 294 294 294 294 293 293 292 292 292 292 292 292 291 292
276 277 276 279 275 274 278 278 274 269 272 284 285 284 286 286 285 284 285 285 286 286 285 284 285 286 287 288 287 287 288 290 291 291 291 292 293 292 292 292 291 291 291 291 289 288 287 288 288 290 291 292 293 294 295 295 296 296 295 295 295 294 294 295 294 295 294 294 294 294 294 294 294 293 293 293 293 292 292 292 292 292 291 291 291 291
276 276 277 277 277 277 274 275 268 271 280 282 283 282 282 283 285 284 282 285 286 287 287 286 287 288 289 288 289 290 289 290 291 291 291 292 292 291 291 292 292 292 291 290 289 289 289 288 288 289 291 292 293 294 295 295 296 295 294 295 294 294 294 294 294 294 294 293 294 294 294 293 293 293 293 292 292 292 292 291 291 291 291 291 291 291
279 279 278 274 279 271 275 274 274 280 279 281 281 281 280 280 279 280 278 282 286 287 286 286 287 288 288 288 289 289 289 287 286 288 290 288 289 290 292 293 293 292 290 290 290 291 291 291 290 290 291 292 293 293 294 295 295 295 294 293 294 293 293 294 293 293 293 293 293 293 294 294 293 292 292 292 292 291 291 291 291 291 291 291 291 290
282 277 280 275 275 278 273 272 273 273 270 277 283 286 284 285 284 285 283 281 285 285 287 286 285 287 287 287 287 286 285 283 282 285 288 288 290 291 291 290 290 290 290 290 289 288 288 287 289 289 291 291 292 293 295 295 295 294 293 293 293 293 293 293 293 293 293 293 294 294 294 294 293 292 292 292 291 291 291 291 291 291 291 291 290 290
280 282 280 275 275 275 273 271 271 270 274 281 281 281 281 279 282 282 278 276 283 284 286 286 286 286 286 285 285 284 283 279 281 285 288 287 287 287 287 289 288 288 286 286 286 286 286 286 288 289 290 291 291 293 294 295 295 294 293 292 293 293 292 292 293 293 293 293 294 294 294 294 293 293 292 292 292 292 291 291 291 291 291 291 291 290
272 275 276 274 273 274 274 271 270 275 274 279 280 280 280 278 283 281 272 274 281 282 284 285 285 285 284 283 283 282 280 279 281 285 284 285 285 285 285 287 287 286 286 285 284 285 285 285 286 287 289 290 291 293 294 294 294 293 292 292 293 292 292 293 293 294 294 294 294 294 294 294 293 293 292 292 292 292 292 291 291 290 290 290 291 290
269 270 272 270 272 274 274 272 275 276 282 282 279 281 283 283 282 274 270 276 281 282 284 284 283 285 283 283 282 282 282 285 286 286 285 285 285 286 287 286 285 284 284 285 285 284 284 285 287 289 289 291 291 292 294 294 294 292 292 292 292 292 293 294 294 294 294 294 293 293 293 294 293 293 293 293 292 292 291 291 291 290 290 290 290 289
266 267 270 271 269 269 272 270 271 276 281 279 281 281 284 281 274 271 279 282 282 282 285 286 285 285 284 285 285 285 285 285 285 286 287 286 286 286 287 287 286 285 284 282 282 282 283 284 286 287 288 290 291 292 294 294 293 292 292 292 292 293 294 294 294 294 293 293 293 293 293 293 293 293 293 293 292 291 291 291 291 290 290 290 289 288
265 263 265 267 269 270 270 269 269 267 278 279 279 279 283 276 278 281 281 281 282 284 285 286 286 286 286 286 286 285 286 286 286 286 286 286 287 287 287 287 286 284 283 282 282 282 283 284 286 287 288 289 290 292 293 293 292 292 292 292 293 294 294 294 294 294 293 293 293 292 292 293 292 292 293 292 292 291 290 290 290 290 290 289 289 288
269 263 264 266 272 265 267 266 268 277 277 279 279 274 281 282 282 281 280 279 283 285 286 286 286 287 287 287 287 286 287 287 287 287 286 287 287 287 287 287 287 285 283 281 280 282 283 285 285 286 287 288 290 291 292 293 292 292 291 292 294 294 294 294 294 294 293 292 292 292 292 292 292 292 292 292 292 291 290 290 290 289 289 289 289 288
272 268 270 266 272 269 267 270 275 277 278 280 282 282 281 281 281 281 281 281 284 286 287 285 286 287 288 288 288 288 287 288 288 288 287 287 287 287 287 288 286 283 282 281 280 282 283 284 285 286 286 288 289 291 292 293 292 290 291 293 294 293 293 294 293 293 292 292 292 291 292 292 292 292 292 291 291 290 290 289 289 288 289 289 288 288
274 274 275 272 270 274 276 277 278 279 279 280 280 281 280 280 282 282 282 284 284 284 285 285 287 287 288 288 288 288 288 289 289 289 289 288 288 288 288 288 288 286 281 280 280 282 283 284 284 285 286 286 288 290 291 292 292 290 291 293 293 293 293 293 292 291 291 292 291 291 291 290 290 290 290 290 291 291 290 289 289 288 288 288 288 288
272 272 271 269 272 269 266 275 275 275 276 277 278 279 280 281 281 283 282 281 282 283 284 286 287 287 288 289 288 288 289 289 289 289 289 289 288 288 287 287 287 286 283 281 281 281 282 283 284 285 286 286 288 290 291 291 292 292 292 293 293 293 293 291 291 290 290 290 291 290 290 289 290 290 289 289 290 290 290 290 290 289 288 288 288 288
266 271 269 270 269 267 268 272 275 276 276 277 277 277 278 281 282 281 282 282 283 284 285 286 286 286 289 289 289 289 289 289 288 289 289 288 288 287 287 287 287 287 286 281 280 282 281 283 284 286 286 286 288 289 290 291 291 291 292 292 293 293 292 290 290 290 290 290 291 290 290 290 288 289 289 289 289 289 289 290 290 290 289 288 288 288
272 273 266 270 268 271 273 274 274 275 275 276 277 278 280 280 280 280 282 283 283 283 282 283 284 286 289 289 290 289 288 289 289 289 288 288 288 288 287 287 287 287 287 284 281 281 283 284 285 286 286 287 288 289 289 290 291 291 291 292 292 292 291 290 289 291 290 291 290 290 290 290 289 289 289 289 289 290 290 289 289 290 290 291 292 291
271 268 271 270 266 266 267 270 273 268 269 274 276 278 279 280 280 280 281 280 280 280 281 282 285 288 289 289 289 289 288 289 289 289 289 289 288 288 287 287 287 287 287 285 282 282 283 284 286 286 286 287 287 288 289 290 291 291 291 292 292 292 291 290 290 290 290 290 290 290 290 290 290 289 289 289 289 289 289 288 289 290 290 290 288 288
270 271 271 268 267 266 271 273 275 275 274 275 276 278 279 279 279 278 278 279 280 281 283 284 285 286 287 288 289 289 288 288 289 289 288 288 289 289 288 287 287 287 286 285 283 282 283 285 285 286 286 287 287 288 288 289 291 291 291 291 292 292 291 291 290 290 290 290 290 290 290 290 290 290 290 290 289 289 288 288 288 288 289 289 288 288
Wind_Speed
3 7 9 11 14 17 16 14 17 8 3 1 2 1 7 7 8 5 1 1 1 1 10 16 13 15 23 24 20 10 4 9 13 15 16 14 14 13 11 12 13 13 17 6 8 8 8 7 6 5 5 6 6 6 7 7 8 8 9 7 9 7 6 6 7 7 7 8 7 6 8 9 8 8 8 7 7 6 7 9 9 8 8 13 16 18
2 7 14 14 17 12 7 7 8 9 5 5 6 6 11 3 15 5 3 1 2 4 5 5 5 13 20 23 19 10 5 14 16 17 17 17 15 12 11 13 13 13 5 4 5 5 5 5 5 5 5 5 7 8 7 9 10 8 6 8 7 5 7 7 8 7 7 7 8 8 8 7 7 8 8 9 8 9 8 9 8 9 9 8 13 15
5 16 14 16 5 2 1 6 9 12 11 8 9 8 8 11 8 6 3 1 1 1 11 8 13 16 19 23 18 15 15 17 18 14 15 12 14 11 9 11 11 7 9 5 7 5 5 5 5 5 6 7 10 7 10 8 5 6 7 7 4 5 6 7 7 7 7 6 6 7 4 5 3 3 4 5 7 7 8 10 10 9 8 9 5 7
8 13 14 9 4 6 4 3 5 4 4 8 7 4 14 4 2 9 1 1 1 6 4 3 13 16 17 23 24 20 16 16 10 6 12 11 13 13 12 8 8 8 8 9 8 8 6 6 6 5 7 9 6 5 5 6 7 5 6 4 4 5 5 6 6 6 6 5 5 5 4 3 3 2 1 2 2 4 6 6 6 8 9 7 7 6
20 4 2 7 8 9 13 4 6 5 9 7 10 11 9 7 10 9 6 2 1 4 2 8 13 14 14 18 17 4 2 4 9 5 8 9 9 10 5 5 7 10 7 8 6 6 5 6 7 8 6 4 6 6 5 5 5 4 6 6 7 6 6 5 5 7 5 4 4 4 4 4 3 1 2 3 3 6 6 6 7 8 9 10 9 9
19 7 5 8 6 8 7 4 9 9 10 6 11 14 14 9 8 6 4 5 6 6 1 1 9 10 6 14 13 8 4 6 3 5 10 9 7 6 9 11 7 7 6 7 7 6 5 5 3 3 4 5 4 5 4 4 5 5 5 4 3 3 3 4 4 5 5 6 7 6 6 7 7 7 7 9 10 8 9 10 9 9 10 11 12 10
9 2 7 7 7 6 7 9 5 9 12 7 7 13 15 13 9 5 3 1 6 8 3 1 2 18 3 4 5 5 6 13 4 6 11 8 10 7 9 9 8 8 6 5 4 4 6 6 5 4 5 5 5 4 3 3 3 3 3 2 3 3 3 3 4 4 5 5 6 9 10 9 9 9 7 7 6 6 7 6 8 9 9 11 12 11
3 1 7 6 6 8 6 9 6 14 7 9 1 3 7 6 7 9 7 8 8 0 3 1 2 6 22 6 6 10 9 13 12 11 12 12 10 10 10 9 8 8 6 7 7 7 6 6 8 8 5 4 5 4 3 3 2 3 3 3 3 3 3 3 3 5 6 7 6 7 8 8 9 10 9 8 7 5 3 6 8 8 9 10 9 10
6 2 5 7 7 8 11 7 6 13 8 4 0 5 4 7 6 3 5 5 2 3 10 7 3 4 13 4 2 3 5 8 11 9 12 8 9 9 10 10 9 8 8 8 9 10 10 10 7 5 6 4 3 2 4 3 3 2 1 1 2 3 4 4 4 5 6 6 7 8 7 8 8 9 9 7 7 7 7 7 6 8 8 9 10 12
1 2 10 9 7 8 5 1 10 12 10 1 6 8 7 7 6 4 4 3 1 1 13 8 7 7 22 7 7 1 2 11 10 12 12 9 8 8 9 9 8 5 5 6 6 5 6 5 5 4 3 4 4 3 2 1 1 0 0 1 2 4 4 4 4 5 6 7 6 8 8 10 10 9 8 8 9 9 8 9 9 8 8 9 10 10
1 1 4 4 6 5 5 2 3 6 2 8 3 7 5 7 3 3 4 2 2 8 12 9 12 9 15 5 11 8 9 10 9 4 4 5 5 6 8 8 8 8 7 6 5 5 5 4 4 4 5 5 3 2 2 1 1 1 2 3 4 5 3 3 5 5 7 7 8 10 10 11 11 11 10 10 11 10 10 10 10 9 9 9 10 10
1 1 1 4 4 3 4 4 2 1 7 7 2 3 2 2 4 2 2 2 3 13 2 6 14 16 14 4 4 4 2 3 6 8 7 7 8 8 8 8 8 7 6 5 6 5 5 4 3 4 6 4 3 2 3 2 3 4 4 4 5 5 5 4 4 5 7 7 9 9 10 11 11 10 11 11 11 12 13 13 11 9 8 9 10 10
9 14 3 1 4 12 3 6 1 3 2 3 6 5 5 4 4 3 2 2 7 12 0 2 2 3 21 19 5 9 7 5 7 7 9 11 8 6 6 7 8 7 6 8 8 7 7 9 9 8 7 4 5 6 6 5 5 6 6 6 6 8 8 8 6 7 8 8 9 9 9 10 9 10 10 11 10 11 11 12 11 10 10 10 10 11
6 2 7 7 3 7 11 10 5 1 7 7 9 7 6 5 5 13 5 1 5 4 1 1 1 9 5 9 12 22 27 20 10 10 8 4 7 8 7 6 7 7 9 9 9 9 10 10 8 8 8 7 7 7 7 7 7 6 6 7 8 8 7 7 6 7 7 8 8 8 9 9 9 10 11 10 11 11 10 11 12 11 11 11 12 12
3 6 8 10 6 8 13 18 16 6 13 14 6 13 13 8 6 9 4 9 11 8 1 4 3 9 5 5 1 14 7 3 8 9 7 7 3 0 1 3 5 6 7 8 9 11 11 10 10 10 8 8 7 7 8 7 6 6 6 6 6 6 6 5 7 6 8 8 9 10 10 9 9 9 9 9 9 10 11 10 11 11 11 11 10 12
9 11 4 14 0 9 14 6 5 6 3 6 3 5 1 15 6 12 2 1 2 3 3 3 9 3 7 5 9 6 8 6 5 6 5 8 5 3 2 5 7 8 9 8 8 8 8 8 8 8 8 8 7 9 7 7 6 6 7 5 5 5 5 6 8 9 9 9 9 10 11 10 9 8 7 7 7 8 8 9 10 11 10 9 11 10
2 7 1 4 3 12 10 3 4 7 9 5 7 10 9 3 5 4 2 2 2 3 16 4 8 9 6 13 15 14 6 10 4 5 5 8 5 5 8 8 7 8 8 9 10 10 9 7 8 9 9 8 8 7 7 7 6 7 6 5 4 5 5 6 7 8 8 7 8 9 10 10 9 9 8 7 7 8 7 6 10 12 10 10 10 10
8 5 1 7 4 2 1 0 1 5 1 8 7 8 4 1 5 4 7 2 1 10 11 5 15 10 2 15 2 16 15 13 6 10 10 5 4 7 10 9 9 10 10 9 8 7 9 10 12 10 9 9 9 9 8 7 7 6 6 5 4 6 7 6 6 6 6 7 9 9 9 9 9 9 9 9 9 7 7 8 5 4 10 11 11 11
3 10 4 2 3 2 2 1 1 1 2 4 5 3 8 5 6 2 3 8 8 6 8 5 3 9 11 14 2 3 8 13 13 9 6 9 8 11 9 8 5 4 5 8 10 9 9 10 11 10 10 8 8 8 8 7 7 6 5 5 5 7 6 6 4 2 3 6 7 7 8 9 8 8 8 7 7 7 8 7 7 8 8 11 11 11
3 6 2 0 3 2 2 3 9 8 1 0 1 1 1 1 2 9 9 1 3 9 1 12 3 15 5 7 8 9 9 15 11 7 12 15 15 12 11 9 9 9 9 10 10 10 10 10 10 10 10 9 9 9 8 8 6 6 5 4 4 5 4 3 2 2 4 5 5 6 7 8 8 8 8 8 8 8 8 8 9 9 8 8 10 12
5 1 7 1 3 1 2 6 11 13 12 6 2 3 1 1 2 2 3 5 7 4 7 6 14 11 4 9 13 17 18 15 10 12 11 11 12 12 11 10 10 10 10 10 10 10 9 8 8 8 6 6 7 6 6 7 7 6 5 4 4 5 4 2 2 2 4 3 5 6 8 9 8 8 7 8 9 9 9 9 9 9 9 9 10 12
2 3 6 3 1 6 6 1 2 10 16 14 15 14 15 11 5 6 9 2 2 4 7 3 15 14 5 1 10 13 11 4 7 8 10 8 9 11 9 6 8 9 9 9 9 8 8 8 8 8 5 5 8 8 10 7 6 6 6 5 5 4 3 2 2 3 3 3 3 5 6 8 8 8 7 9 9 9 8 8 9 9 10 11 10 12
2 1 4 5 6 9 3 2 2 1 1 2 6 9 8 8 7 7 12 6 2 4 1 2 2 19 4 3 3 5 2 1 4 5 5 4 6 8 8 6 5 6 7 9 8 8 8 9 9 8 10 10 10 10 8 8 7 7 7 5 5 5 4 4 3 2 2 3 3 4 5 6 7 7 8 10 8 9 9 9 8 10 11 10 10 11
10 5 5 9 6 1 2 1 1 3 1 3 5 2 3 11 12 8 3 3 7 3 6 5 5 18 1 2 1 3 3 1 2 5 4 4 4 5 4 5 7 6 5 3 4 4 6 7 8 9 10 11 11 12 12 8 7 7 6 6 5 6 5 5 3 3 2 2 2 3 4 5 6 7 7 8 7 8 8 9 9 10 11 11 11 11
7 2 10 8 2 1 1 2 1 1 1 2 4 6 7 3 5 1 3 1 3 11 11 9 13 18 1 5 3 5 3 3 3 4 3 4 3 3 4 4 4 4 3 4 5 6 6 9 11 11 10 11 11 12 10 9 8 8 8 6 7 6 5 5 4 4 3 3 3 4 4 6 6 7 7 7 7 8 9 9 9 9 11 11 11 11
6 5 4 7 8 9 7 5 6 7 8 2 3 3 4 9 5 3 9 4 9 7 11 11 13 14 3 4 4 4 5 5 2 1 4 4 6 3 2 3 3 5 7 6 5 7 12 12 10 10 12 10 11 11 10 9 9 8 8 8 6 6 6 6 4 5 5 4 4 4 5 6 7 7 6 6 7 9 8 9 9 9 9 11 12 11
5 3 5 7 7 9 6 3 1 4 4 6 6 13 11 11 13 12 6 9 15 17 14 9 13 20 9 4 8 6 6 5 4 3 3 5 6 4 3 1 3 5 6 9 9 7 5 7 13 12 11 10 11 10 9 10 10 9 8 8 7 6 6 7 5 5 5 4 4 5 5 6 7 8 7 7 7 7 8 9 9 11 10 9 11 12
4 7 10 13 16 14 11 13 9 4 4 6 7 7 11 12 12 15 14 18 17 11 17 13 19 15 23 8 10 13 11 7 4 4 4 5 8 6 2 2 3 5 6 5 5 8 13 12 10 12 12 12 11 10 10 9 10 10 9 10 8 6 6 7 6 5 6 5 5 5 5 6 7 8 8 7 7 8 8 8 9 9 10 10 10 11
4 7 11 11 14 13 14 15 16 13 8 9 9 10 10 12 12 14 18 21 15 13 20 18 5 16 23 9 13 16 14 9 13 15 9 3 2 2 1 3 6 7 7 7 11 11 11 12 13 14 13 12 12 12 13 10 9 9 8 9 8 7 8 9 8 6 6 6 6 5 5 6 6 7 8 8 7 7 8 9 9 9 10 10 10 9
3 5 9 8 14 14 14 15 17 18 12 10 12 13 13 13 15 17 20 20 20 18 15 19 5 13 3 2 5 7 4 7 10 6 5 6 9 8 5 7 7 10 9 12 14 14 14 14 12 13 13 13 14 14 13 14 11 10 10 9 9 8 8 9 9 7 7 7 6 5 6 7 7 8 9 8 8 7 7 8 8 9 9 10 10 10
3 7 13 10 12 13 14 15 17 18 12 16 15 16 13 8 11 18 18 20 18 18 20 19 20 22 12 1 8 10 13 15 17 18 19 21 19 14 15 11 11 12 13 13 13 13 13 12 11 11 13 15 15 15 16 15 12 11 11 11 10 10 8 9 10 8 8 8 7 6 6 7 8 8 9 8 8 7 8 8 8 9 9 9 9 10
3 8 7 6 11 13 11 12 17 17 13 15 16 14 12 10 11 11 15 14 12 15 14 13 17 20 9 6 8 9 11 15 17 18 19 19 23 20 16 12 13 14 13 14 14 13 11 12 13 15 16 17 16 15 13 13 13 13 10 11 12 11 8 9 10 10 9 8 7 6 7 7 8 9 9 9 9 8 8 8 8 8 9 9 9 9
4 4 7 8 11 10 15 14 14 10 9 10 13 17 21 22 20 14 9 7 12 11 14 13 19 13 7 5 7 8 11 14 17 17 17 19 21 20 16 14 13 14 14 14 14 14 14 15 17 18 17 14 16 16 16 16 14 14 14 13 12 10 9 9 11 11 9 8 8 8 7 6 8 9 9 9 9 8 8 8 9 9 9 10 9 9
6 6 8 7 7 11 13 15 5 6 12 9 4 16 18 20 16 17 17 17 14 10 11 11 13 13 9 10 9 12 10 11 15 16 17 17 18 19 8 8 11 14 14 14 13 14 15 14 13 14 17 18 18 17 16 16 16 15 13 12 11 12 10 10 11 11 10 9 9 9 7 7 8 9 9 9 9 9 9 9 9 9 9 9 9 10
11 9 8 7 7 9 11 10 11 14 12 2 6 3 5 11 15 21 22 19 17 15 13 16 20 23 24 21 19 19 22 23 22 21 20 18 18 15 18 16 14 16 18 16 12 12 13 15 16 15 14 14 15 15 14 14 13 12 12 12 13 12 12 10 11 11 11 10 9 9 8 9 8 9 10 10 10 10 9 9 8 8 7 8 10 10
9 11 7 5 6 8 7 8 11 9 0 8 11 6 4 4 7 6 11 14 16 17 19 21 23 24 22 22 23 22 20 21 19 18 19 18 14 15 16 18 20 19 18 11 12 15 16 17 19 19 18 16 13 13 15 16 14 14 14 13 13 13 12 11 11 11 11 11 10 11 10 9 9 9 10 11 10 10 10 9 9 10 8 8 8 7
17 12 6 8 5 10 9 12 15 9 16 14 11 6 5 5 4 8 10 11 13 15 15 16 20 20 21 23 20 17 13 10 13 17 15 9 11 13 16 19 19 17 12 11 14 18 19 17 14 15 12 12 15 15 16 15 15 15 14 14 13 14 13 12 12 12 13 12 11 11 11 11 10 9 10 11 12 11 10 10 9 8 8 9 9 9
12 13 6 8 5 7 12 13 9 8 11 9 10 11 2 6 7 9 9 13 3 8 11 13 17 21 20 14 11 7 5 9 12 14 10 8 8 10 11 11 12 12 13 13 9 7 8 7 8 9 11 13 16 17 15 16 16 15 15 15 14 14 14 13 13 13 13 13 12 12 11 11 11 10 10 11 12 12 11 9 9 9 9 10 10 9
6 11 15 12 8 7 9 11 11 10 6 1 5 7 9 7 3 2 5 9 3 5 10 10 14 13 9 7 7 6 8 6 11 11 12 8 9 8 10 10 9 9 8 8 9 10 9 8 11 12 12 14 16 15 16 17 18 16 16 15 15 15 15 15 14 14 14 13 12 11 11 10 11 11 11 11 11 12 12 11 10 9 8 8 9 9
12 6 7 10 11 10 9 10 10 3 3 3 12 17 13 4 1 4 2 2 15 19 15 16 13 9 8 6 6 4 3 8 10 14 8 12 11 9 9 15 13 11 11 10 8 9 9 6 6 7 12 15 17 16 18 17 17 17 16 16 15 16 17 16 15 14 13 12 11 11 10 10 11 11 11 11 10 10 11 10 9 9 10 8 8 8
9 9 6 9 8 9 10 9 8 7 4 5 10 16 17 7 2 2 3 10 19 20 21 17 15 18 11 9 9 11 3 5 12 13 12 11 14 16 16 11 9 11 14 14 12 7 6 6 11 14 16 14 14 15 16 16 17 17 16 16 16 18 17 15 12 12 13 12 12 11 11 10 11 13 11 10 10 9 10 10 11 10 10 9 8 8
7 4 6 7 9 8 7 7 7 8 1 8 13 15 11 8 2 1 9 13 15 19 15 13 13 14 13 15 13 9 11 10 10 11 17 18 15 16 17 18 17 17 11 8 10 6 5 5 7 7 8 10 15 16 16 17 17 17 16 17 18 18 14 13 12 12 12 13 13 12 11 11 10 10 11 10 10 10 10 9 10 11 11 9 9 10
3 4 7 8 6 7 6 8 7 6 2 15 21 17 11 8 7 8 13 21 16 14 13 15 15 11 11 14 12 12 14 17 12 12 12 15 18 19 20 20 19 18 18 16 12 5 4 5 7 8 9 9 12 14 16 18 19 17 17 18 18 14 14 14 13 13 13 13 13 13 12 11 12 10 9 11 11 11 11 10 10 10 10 11 10 10
4 7 6 4 1 6 7 6 5 4 15 18 13 8 10 7 11 17 17 17 15 11 13 14 14 16 15 15 16 16 14 16 18 13 13 12 15 17 18 19 18 17 16 11 8 8 4 5 4 6 6 8 11 13 14 17 18 17 17 18 13 13 13 13 13 13 13 13 13 13 11 11 11 11 9 11 12 11 12 11 11 11 10 11 11 10
5 3 3 8 7 5 8 12 15 22 22 16 8 7 12 18 19 20 17 13 11 12 11 13 16 18 18 16 18 16 15 14 17 17 15 15 15 16 17 19 16 14 14 14 13 7 4 5 5 5 7 8 11 12 13 14 17 17 18 14 14 14 15 14 14 13 13 13 13 13 11 10 9 10 10 10 12 12 11 12 11 11 9 11 10 10
12 15 13 10 12 11 15 15 16 18 15 14 11 10 15 18 19 19 12 10 13 15 14 14 15 17 19 16 16 15 13 15 17 19 19 16 15 16 16 17 19 14 9 8 9 6 4 2 3 5 8 6 9 12 12 13 14 17 16 13 14 14 14 15 15 14 14 13 12 13 12 11 9 9 9 8 9 11 12 12 11 10 10 10 10 10
7 5 6 9 7 9 13 4 12 20 24 21 19 18 14 13 16 11 11 14 18 20 20 17 14 15 17 15 14 16 18 14 16 15 16 15 15 16 17 18 18 16 12 11 9 4 3 3 4 6 8 9 9 10 11 12 11 10 10 14 14 14 14 14 14 14 13 12 12 12 12 12 9 8 8 8 7 7 9 11 12 11 11 10 10 10
5 2 7 9 11 12 18 17 17 20 25 26 19 16 14 10 11 18 19 20 21 19 16 17 19 18 16 16 15 17 19 14 12 14 14 14 14 14 16 17 18 19 17 6 6 5 5 4 6 7 8 10 10 10 10 11 11 10 11 10 12 13 14 14 14 15 13 13 11 12 13 12 13 12 8 8 9 8 8 8 10 12 13 13 13 12
12 6 13 5 11 16 18 17 17 19 23 23 18 8 7 12 17 20 19 17 18 21 22 22 19 18 15 16 17 17 17 16 14 12 13 14 14 14 15 17 18 18 17 14 6 5 8 7 7 8 9 9 9 10 11 11 10 9 12 12 12 14 14 14 14 13 13 12 11 11 11 12 12 10 9 9 9 8 8 9 9 10 9 10 12 14
8 11 10 11 13 13 12 12 9 14 18 19 17 12 14 15 15 18 19 20 21 22 23 22 19 15 16 14 13 15 15 14 15 15 14 13 14 16 16 17 17 18 19 12 5 6 7 7 8 8 9 8 8 10 10 11 11 10 10 12 13 14 15 14 13 13 13 12 11 10 11 11 12 11 11 10 9 8 6 7 8 7 8 9 9 9
12 14 9 13 11 15 13 12 11 15 21 21 24 21 13 12 16 20 23 23 23 21 20 20 21 20 19 16 12 12 14 13 16 17 16 13 15 16 16 16 17 17 18 15 9 7 8 9 7 7 9 9 8 11 11 11 11 11 11 13 13 14 15 14 13 12 12 12 12 12 11 10 12 13 11 11 11 9 8 7 7 9 10 8 8 9
Wind_Direction
123 181 189 201 221 213 219 201 217 241 29 111 145 180 243 254 278 278 261 261 191 315 234 250 243 256 268 271 276 273 222 242 253 258 260 258 262 260 258 252 249 246 248 235 224 223 224 220 209 205 194 207 212 213 206 204 207 204 206 191 211 201 182 177 179 185 185 182 189 198 201 207 196 193 187 191 190 181 193 192 191 196 218 191 181 172
91 214 226 220 226 221 221 202 239 275 290 273 277 265 271 209 266 256 290 126 273 177 280 252 283 258 266 273 274 277 207 250 245 254 256 258 257 256 253 256 249 250 273 253 255 243 238 235 227 205 198 191 198 218 199 205 205 199 197 200 206 161 179 183 184 183 186 193 197 194 206 206 204 196 192 194 191 190 184 188 184 194 191 221 191 181
205 224 226 220 223 96 144 196 208 213 233 241 237 259 282 259 269 284 260 18 271 125 265 288 277 272 273 276 277 266 259 259 255 242 250 250 261 255 248 249 257 261 253 242 242 241 235 233 228 206 207 208 209 195 195 203 186 190 195 208 185 172 181 191 184 182 196 187 190 197 194 193 202 237 224 212 200 185 182 183 180 181 192 187 240 233
256 252 236 225 166 219 248 148 185 225 248 230 247 261 240 242 293 293 304 42 229 190 276 323 297 279 275 275 269 264 244 249 262 235 240 238 243 246 241 235 244 248 253 243 232 234 228 223 221 207 208 210 199 195 191 187 191 184 190 189 180 183 189 188 195 196 197 189 177 189 181 159 168 167 213 212 155 166 167 181 182 183 172 180 180 182
226 198 253 169 179 181 221 166 154 180 242 215 218 232 251 242 235 209 267 295 249 300 311 308 280 272 246 266 278 298 282 288 275 252 255 252 241 251 282 274 226 237 233 242 244 239 227 214 213 204 203 174 188 195 189 178 178 176 181 185 185 185 190 189 186 195 189 173 174 166 148 144 150 116 165 203 196 178 174 167 173 183 175 173 174 178
259 231 105 133 186 202 198 183 198 169 249 242 224 211 230 238 254 256 311 355 345 320 231 63 320 269 227 222 258 275 304 267 226 224 247 242 235 227 242 244 241 239 224 222 230 223 213 211 206 193 166 168 172 172 177 163 163 159 173 171 170 164 170 185 195 190 176 191 191 185 184 189 192 193 183 192 202 188 179 186 182 174 179 179 176 179
250 148 172 179 175 196 200 217 204 165 237 257 263 187 221 230 237 245 272 56 281 249 302 23 200 293 138 236 231 250 268 270 271 244 260 247 245 228 232 235 229 220 225 234 239 212 196 205 191 199 179 169 151 171 132 131 133 132 137 156 166 175 181 186 184 173 175 191 198 205 207 209 208 209 206 203 208 206 200 182 177 178 180 182 178 177
99 222 176 170 155 172 188 229 215 181 204 252 287 212 202 212 220 231 220 203 247 331 274 77 113 276 294 237 222 252 252 269 283 267 245 244 232 229 227 226 224 213 208 202 210 210 211 195 191 185 183 163 172 147 127 126 133 160 178 169 186 192 198 200 178 177 184 188 196 204 210 213 212 208 208 195 202 196 188 188 184 175 179 181 182 174
134 157 169 184 190 193 213 213 158 172 178 226 252 131 142 185 202 193 182 211 230 33 279 147 143 306 257 285 292 104 254 262 254 258 256 230 220 223 221 222 220 213 204 194 196 202 197 193 194 174 176 192 158 143 156 170 175 173 182 200 188 202 206 205 186 189 201 200 197 201 202 211 216 211 206 191 187 187 185 197 188 180 177 178 181 177
320 160 205 174 168 216 203 287 168 168 217 199 127 97 87 83 68 108 118 135 321 59 258 168 161 222 278 216 202 301 216 258 243 242 253 231 216 212 220 219 215 213 210 206 212 200 197 191 181 184 155 149 186 178 156 130 117 147 277 274 259 248 211 205 196 197 202 205 203 208 209 210 210 206 199 186 186 187 183 194 189 184 175 173 174 176
219 6 180 138 196 197 124 74 186 196 170 133 113 75 39 41 42 35 67 93 48 244 250 162 193 185 277 256 182 143 212 205 230 280 270 269 242 238 229 207 200 202 198 196 195 189 185 183 174 159 162 172 155 129 126 134 145 154 237 247 255 252 243 224 214 194 208 203 207 216 214 214 212 202 197 193 193 189 188 193 190 185 180 174 173 169
145 80 97 244 130 110 105 85 56 136 148 136 110 128 68 332 26 33 336 54 193 265 223 203 182 187 216 276 215 224 318 251 188 190 196 212 208 214 204 205 200 189 185 174 173 182 172 166 167 133 173 172 176 131 143 166 208 222 229 227 252 267 259 252 240 230 226 210 214 218 217 218 214 203 200 200 196 191 193 190 190 184 176 175 171 169
242 237 172 46 229 143 156 97 7 65 209 107 119 102 145 248 38 295 56 250 195 246 240 328 143 343 238 244 290 275 259 280 216 234 189 189 203 203 212 203 186 177 167 175 181 175 181 183 177 179 184 178 174 181 183 200 206 212 215 226 239 252 249 240 226 225 227 225 224 220 221 223 215 210 201 200 204 197 197 188 185 181 181 173 170 172
271 210 174 209 89 231 152 189 174 139 214 163 165 160 130 236 234 259 234 252 313 291 291 180 325 251 287 296 220 255 255 239 233 224 245 245 196 190 203 191 174 180 182 183 179 182 182 183 182 180 182 184 182 179 193 198 202 199 198 207 223 243 234 229 225 222 230 232 234 228 221 217 212 210 202 201 205 202 205 192 187 182 180 177 178 175
270 289 220 134 247 174 189 213 199 185 167 197 179 172 201 184 180 238 183 229 241 241 293 283 113 233 116 248 262 246 292 313 226 222 222 221 245 284 172 178 174 177 193 183 184 185 183 185 180 182 184 183 182 186 198 200 197 195 205 208 223 242 244 237 242 234 229 229 229 234 227 217 210 208 201 202 202 199 201 204 195 188 180 176 177 176
209 235 248 182 302 147 190 219 96 93 123 212 204 40 106 226 97 236 210 168 306 335 328 222 212 211 195 274 291 231 272 289 266 236 199 237 210 200 204 189 201 196 186 187 189 191 193 185 182 180 184 182 182 195 197 200 192 202 213 208 220 243 247 228 227 226 222 217 213 218 222 216 206 202 198 196 196 198 196 197 194 185 179 179 169 168
207 251 148 112 59 172 188 120 188 152 203 188 120 213 213 70 172 269 333 83 79 32 257 145 286 261 298 278 263 280 225 253 232 234 218 231 206 193 218 219 213 204 188 186 194 193 188 184 193 189 179 183 189 189 195 197 190 203 207 199 214 244 247 232 220 219 216 216 209 210 212 210 204 197 198 195 195 193 190 198 199 181 176 167 164 162
208 234 55 151 215 258 141 200 160 30 139 102 201 218 57 118 90 148 229 353 102 229 265 133 238 273 68 286 190 230 231 231 215 224 216 220 197 200 221 216 207 203 199 194 194 194 190 190 187 186 190 184 178 185 194 193 192 204 203 188 213 241 245 241 228 217 207 208 211 207 204 203 198 196 198 197 192 184 177 177 192 194 161 166 164 161
181 253 190 253 81 84 27 102 339 334 30 148 183 241 145 219 224 273 101 238 240 245 275 264 251 261 210 245 308 358 242 250 236 215 210 219 211 222 225 226 210 197 183 187 195 194 193 194 192 189 188 183 171 181 192 190 193 195 197 189 209 235 233 236 237 234 238 222 212 205 199 198 198 197 197 197 186 180 179 172 171 166 176 161 157 156
326 214 317 352 139 180 67 163 196 189 319 130 316 324 321 70 243 162 201 170 119 251 84 274 75 267 162 217 205 235 214 226 223 184 209 210 205 207 212 207 192 195 198 197 197 198 196 196 191 187 183 175 175 185 192 200 189 187 180 169 213 227 230 233 249 245 244 234 216 202 196 200 200 194 189 189 186 183 181 177 172 166 159 161 154 158
285 303 258 110 326 116 168 214 207 171 170 208 144 222 199 214 258 97 318 171 195 199 222 277 289 263 231 210 192 212 225 223 177 196 209 209 212 214 210 198 190 195 197 201 198 195 193 190 187 191 188 169 165 179 191 198 184 174 153 181 213 208 199 197 211 232 234 212 218 202 195 196 195 189 179 178 183 179 179 175 171 167 158 151 160 155
301 320 244 127 56 227 246 277 188 189 189 184 182 199 192 172 184 190 244 64 144 174 237 176 259 278 246 224 216 222 236 279 233 190 197 204 208 206 211 215 194 193 206 200 195 186 184 184 187 183 176 166 166 188 205 202 177 172 167 188 213 202 182 148 235 230 223 206 209 208 190 184 182 178 175 179 179 178 171 165 164 151 145 157 157 155
168 294 336 235 212 218 238 266 349 348 333 209 193 226 197 206 203 191 222 224 46 256 111 204 59 268 74 293 281 285 297 286 272 251 202 213 200 205 209 209 213 206 198 197 188 186 184 184 183 179 182 179 181 192 197 195 184 179 172 189 211 204 165 150 207 239 220 199 182 184 175 164 159 162 174 175 176 172 164 157 150 148 152 153 154 157
169 220 198 250 265 296 277 325 13 28 24 297 277 214 144 207 210 225 263 194 184 168 213 220 198 263 197 281 42 279 303 328 349 290 280 210 199 217 205 199 207 207 210 181 169 181 183 176 176 178 186 186 188 197 198 190 180 177 168 189 201 206 162 148 177 198 214 207 168 159 152 152 147 150 160 163 162 164 158 148 150 152 153 152 154 155
281 269 209 230 206 325 2 348 338 356 56 238 231 228 217 254 238 189 80 326 272 204 210 177 233 258 324 316 37 354 353 348 342 306 307 282 245 227 217 218 219 214 188 194 189 186 177 182 188 193 188 188 189 195 188 186 181 177 172 188 201 207 161 135 170 179 191 204 165 158 151 142 141 141 151 153 153 152 148 148 146 148 148 149 152 152
278 294 245 225 210 237 235 212 230 221 222 218 245 293 214 199 187 129 240 194 246 236 203 221 245 255 316 340 4 354 348 347 319 307 293 245 260 236 207 206 222 202 212 204 194 184 197 197 192 192 193 186 188 190 184 184 183 177 171 191 204 203 160 140 165 174 173 192 176 162 157 143 138 138 142 145 149 149 146 142 146 145 147 151 150 147
299 284 272 283 283 269 261 256 187 85 96 188 224 217 221 206 201 208 208 220 228 241 234 231 241 261 268 314 321 321 334 328 335 327 264 296 286 272 239 202 210 219 216 213 207 207 199 200 203 200 193 189 187 185 183 183 179 173 169 183 198 205 171 145 158 171 169 184 189 164 167 150 145 141 137 142 141 139 141 145 146 145 146 150 147 147
317 306 284 264 259 261 275 280 270 147 191 218 231 239 230 217 210 208 204 227 226 246 261 232 232 251 255 250 295 305 301 296 259 258 308 312 279 261 282 217 220 228 227 218 216 207 209 208 201 200 196 191 191 184 185 186 182 176 173 183 188 195 177 149 153 170 168 177 196 170 175 153 143 139 136 134 139 141 141 140 141 141 141 142 147 151
292 296 297 296 281 268 263 263 267 266 244 252 241 239 236 220 216 217 230 237 234 223 240 253 186 229 256 245 240 249 265 299 330 328 309 250 301 2 224 223 239 236 228 217 225 218 214 207 203 200 196 193 188 188 188 183 178 180 175 180 185 192 187 157 152 164 171 179 195 185 173 149 139 132 127 134 136 138 143 145 141 139 143 148 150 155
277 246 284 282 279 274 264 258 261 257 255 250 246 244 238 221 214 217 231 239 240 246 254 265 232 240 258 308 256 259 300 320 306 288 293 308 288 275 248 235 236 237 226 225 224 219 215 214 203 200 195 191 192 191 189 191 183 179 176 174 179 191 192 162 156 161 175 182 194 187 175 153 143 137 131 135 140 143 143 141 140 142 146 151 154 154
192 285 305 306 300 282 264 257 258 260 250 251 246 244 243 239 232 222 226 237 245 254 259 270 279 278 255 285 310 299 308 308 301 298 296 290 285 277 265 239 234 236 231 229 230 225 219 214 207 200 199 198 194 193 192 191 186 180 182 179 177 186 188 172 154 161 174 180 188 189 175 158 149 144 140 141 139 138 142 142 143 145 147 148 152 153
288 279 285 286 290 286 279 261 256 257 253 246 253 249 243 226 234 226 230 225 224 239 251 258 266 260 282 148 240 238 243 252 255 258 261 263 268 266 250 234 234 237 235 230 228 224 218 213 207 203 204 201 196 191 190 188 185 180 171 176 177 180 183 177 159 161 175 177 175 186 180 166 152 151 145 143 145 147 148 146 145 147 146 145 148 152
234 298 303 301 285 275 280 275 274 284 266 247 236 240 232 229 228 236 240 239 232 220 240 242 250 265 267 225 239 248 232 237 239 240 244 251 258 257 246 236 239 244 238 231 229 221 217 214 211 207 205 198 194 192 193 185 182 184 178 179 176 167 182 183 167 161 170 173 171 178 181 171 160 154 152 150 147 147 146 149 150 148 149 152 151 149
257 257 275 280 266 286 288 289 307 266 242 243 220 226 225 231 230 237 240 230 232 195 236 249 272 286 290 288 250 254 241 236 237 236 230 246 263 270 257 240 252 257 250 239 231 223 220 219 220 215 206 199 196 192 185 184 186 185 177 172 166 168 179 185 172 164 165 170 174 172 177 175 169 159 156 151 145 147 152 155 159 158 156 150 150 158
270 280 271 267 267 275 285 293 285 244 263 241 238 301 215 221 224 229 237 240 243 243 248 262 266 266 266 266 270 266 260 257 253 254 257 260 266 281 288 284 270 263 255 245 233 225 225 221 219 215 205 200 195 188 178 184 183 172 171 171 170 172 177 190 175 166 164 169 177 169 172 178 176 165 155 153 150 153 158 161 154 153 151 153 159 162
255 256 260 250 259 267 257 247 259 255 209 304 297 259 239 242 246 244 264 257 252 252 251 255 257 260 262 264 259 256 262 272 279 276 275 277 280 275 274 268 265 263 259 234 225 229 226 221 217 208 205 196 181 181 182 181 174 170 176 172 173 170 177 184 179 169 163 169 177 175 173 176 176 168 159 154 154 157 160 157 157 157 158 154 156 159
229 243 247 276 245 266 265 262 259 311 310 291 290 266 170 197 169 177 250 249 232 238 240 243 251 255 256 253 260 277 293 315 299 287 273 252 239 227 240 256 258 257 244 230 220 230 229 226 221 213 201 183 182 179 181 175 172 171 168 172 176 172 174 182 181 174 170 172 177 178 173 173 174 171 166 159 157 160 160 159 159 156 155 154 157 159
222 227 210 243 250 230 262 271 271 262 258 277 248 274 228 201 195 201 197 271 240 249 235 236 246 252 256 267 280 301 1 314 303 298 302 238 249 243 248 251 257 254 245 246 255 262 258 228 209 204 191 185 184 184 175 171 170 168 170 173 174 173 174 183 185 176 172 175 178 180 175 174 171 173 171 166 163 162 163 162 158 157 160 160 159 164
322 239 244 237 255 267 265 262 265 261 260 223 316 352 340 340 278 99 114 265 279 251 252 234 252 271 290 309 306 358 335 312 298 316 338 339 336 329 318 300 289 288 283 271 263 260 248 225 201 194 183 181 186 181 173 171 168 169 173 174 175 176 176 185 184 177 175 175 177 180 176 175 172 171 173 173 169 164 161 162 162 157 161 161 162 163
338 315 292 267 254 241 253 265 269 260 272 302 20 352 329 295 196 160 195 167 17 335 330 337 316 319 324 342 341 345 296 312 324 332 331 323 315 299 294 301 305 303 294 285 273 251 253 225 183 183 185 188 188 172 171 170 171 173 173 176 175 178 183 185 185 180 169 165 170 178 179 179 177 173 173 175 168 163 161 157 152 155 160 158 159 155
334 329 314 282 283 286 280 275 274 269 266 18 21 352 334 316 36 204 210 350 324 332 341 342 343 341 334 355 8 344 301 297 311 306 312 320 330 322 312 304 281 277 285 289 279 277 252 219 197 195 192 186 173 172 172 171 172 176 176 174 178 187 186 179 173 171 167 164 166 177 184 182 185 176 173 171 169 161 154 156 157 156 159 156 155 151
317 307 286 314 306 296 298 301 284 290 25 35 19 357 351 350 225 61 334 299 313 319 324 334 351 345 346 344 339 329 320 318 311 329 339 338 332 320 321 324 325 315 294 270 274 273 246 224 217 209 192 180 171 169 171 173 178 178 175 179 188 187 173 164 169 169 165 167 168 176 183 185 186 183 170 163 158 158 158 159 156 158 158 156 156 159
294 316 307 311 295 282 258 254 271 272 162 40 358 353 26 7 336 347 322 314 316 322 325 337 334 328 333 321 320 319 322 322 325 331 335 330 331 327 325 325 326 319 313 315 311 289 233 225 207 197 184 175 171 171 174 176 179 179 179 187 186 172 166 164 165 169 169 169 168 173 181 185 183 182 178 164 162 160 160 158 157 158 156 155 158 161
321 289 277 252 31 314 303 254 242 319 315 332 10 319 328 344 335 329 317 306 316 318 329 325 328 323 324 323 322 321 321 320 322 332 328 327 325 323 322 322 325 320 313 299 279 283 251 230 209 186 177 172 172 175 176 180 181 181 183 187 169 165 163 162 164 167 169 171 172 169 177 182 183 183 181 173 164 165 162 164 162 160 163 163 162 163
174 233 327 292 295 263 275 282 293 293 296 312 358 335 329 326 322 307 300 296 300 310 322 320 317 321 319 323 320 322 323 329 321 324 327 324 322 319 320 318 318 312 305 303 302 296 258 226 200 179 173 176 175 177 181 185 185 182 183 176 164 167 165 164 163 166 173 173 171 169 171 173 180 183 182 181 171 165 167 163 161 163 167 164 167 168
277 280 290 291 279 282 266 264 278 282 293 308 319 319 316 311 307 298 303 309 306 311 313 313 319 315 316 320 320 318 320 321 324 324 324 324 320 316 317 317 319 323 308 294 293 286 267 266 211 180 176 183 183 182 185 189 188 186 183 165 168 166 165 163 164 168 174 175 171 168 161 167 177 181 182 183 186 176 168 166 167 166 166 169 170 171
261 276 278 262 301 317 276 331 302 300 299 299 305 305 296 285 278 297 314 313 313 313 312 308 312 313 308 312 313 311 313 323 320 320 318 320 320 319 318 315 314 317 320 307 291 269 257 198 210 201 184 184 192 189 190 190 194 187 169 172 166 164 163 165 167 168 171 175 173 164 161 164 173 176 178 182 191 191 179 170 171 170 171 174 172 174
275 101 296 274 288 268 280 294 294 296 291 291 292 299 302 301 318 321 316 310 305 302 306 312 317 311 309 308 312 310 307 312 316 316 316 314 314 315 312 311 312 316 316 293 273 251 235 216 213 211 198 195 190 192 192 191 189 177 172 169 167 163 162 166 171 171 173 175 175 170 165 165 167 171 177 183 183 188 188 188 181 178 179 178 177 175
272 307 266 305 281 279 281 280 282 284 279 280 286 282 302 318 308 298 296 299 303 307 308 306 303 296 299 299 305 303 302 305 307 309 309 308 309 310 308 306 306 308 308 313 288 232 229 218 216 216 210 206 188 188 190 194 188 175 173 171 167 165 164 168 171 170 169 171 174 179 172 167 164 169 174 179 187 192 192 186 188 192 196 199 184 179
272 253 269 276 272 272 275 292 315 299 298 300 292 293 298 296 295 297 302 304 304 303 302 301 300 297 294 292 296 299 297 300 304 309 308 305 303 304 304 304 305 306 306 306 274 243 244 233 225 218 217 212 188 189 193 190 188 181 175 170 170 168 167 166 168 171 173 172 176 177 176 172 166 168 170 174 181 183 188 199 196 200 196 197 208 215
251 261 268 267 265 275 280 276 277 277 280 278 288 296 297 303 307 303 300 300 300 299 298 298 300 301 297 296 296 294 293 295 301 307 307 308 303 301 299 300 301 303 302 306 305 269 237 236 224 223 222 213 196 193 191 191 189 181 178 175 174 172 170 166 169 175 175 172 178 178 179 181 175 172 171 173 176 178 180 181 196 202 199 196 195 199